K1FFK-1 Weather Reports


time (UTC)temp
C
wind
direction
speed
KPH
gust
KPH
rain 1hr
cm
rain 24hr
cm
rain mn
cm
humidity
%
barometer
mb
20260504151134 8 295 6.4 6.4 0.00 0.00 0.00 59 1013.2
20260504150134 8 201 6.4 6.4 0.00 0.00 0.00 59 1013.3
20260504141134 7 309 6.4 6.4 0.00 0.00 0.00 62 1013.2
20260504140134 6 300 8.0 8.0 0.00 0.00 0.00 63 1013.3
20260504130134 5 329 6.4 6.4 0.00 0.00 0.00 66 1013.1
20260504120134 3 285 6.4 6.4 0.00 0.00 0.00 70 1013.3
20260504110134 3 309 8.0 8.0 0.00 0.00 0.00 72 1012.7
20260504100135 2 292 11.3 11.3 0.00 0.00 0.00 72 1012.1
20260504090133 2 227 4.8 4.8 0.00 0.00 0.00 76 1012.0
20260504081133 2 299 8.0 8.0 0.00 0.00 0.00 75 1012.3
20260504080133 2 306 8.0 8.0 0.00 0.00 0.00 76 1012.3
20260504070133 2 330 11.3 11.3 0.00 0.00 0.00 78 1012.0
20260504060134 2 340 12.9 12.9 0.00 0.00 0.00 78 1012.1
20260504050133 1 327 12.9 12.9 0.00 0.00 0.00 75 1012.5
20260504045133 1 336 8.0 8.0 0.00 0.00 0.00 74 1012.6
20260504044133 1 326 11.3 11.3 0.00 0.00 0.00 75 1012.7
20260504043134 1 329 11.3 11.3 0.00 0.00 0.00 75 1012.6
20260504042134 1 329 9.7 9.7 0.00 0.00 0.00 74 1012.6
20260504041134 1 327 9.7 9.7 0.00 0.00 0.00 74 1012.5
20260504040134 1 330 11.3 11.3 0.00 0.00 0.00 74 1012.4
20260504035133 1 341 14.5 14.5 0.00 0.00 0.00 74 1012.3
20260504034134 1 334 12.9 12.9 0.00 0.00 0.00 74 1012.4
20260504033134 1 341 14.5 14.5 0.00 0.00 0.00 74 1012.2
20260504032133 1 336 12.9 12.9 0.00 0.00 0.00 73 1012.2
20260504031134 1 334 12.9 12.9 0.00 0.00 0.00 72 1012.1
20260504030134 1 330 11.3 11.3 0.00 0.00 0.00 71 1012.1
20260504025134 1 334 9.7 9.7 0.00 0.00 0.00 69 1012.2
20260504024134 1 334 11.3 11.3 0.00 0.00 0.00 68 1012.2
20260504023134 1 326 12.9 12.9 0.00 0.00 0.00 67 1012.2
20260504022133 1 326 17.7 17.7 0.00 0.00 0.00 66 1012.1
20260504021133 1 334 14.5 14.5 0.00 0.00 0.00 65 1012.2
20260504020134 1 334 12.9 12.9 0.00 0.00 0.00 64 1012.1
20260504015134 1 337 14.5 14.5 0.00 0.00 0.00 63 1012.1
20260504014133 2 337 11.3 11.3 0.00 0.00 0.00 63 1011.9
20260504013133 1 329 16.1 16.1 0.00 0.00 0.00 62 1011.7
20260504012134 1 322 14.5 14.5 0.00 0.00 0.00 62 1011.7
20260504011133 1 327 14.5 14.5 0.00 0.00 0.00 61 1011.6
20260504010133 2 330 14.5 14.5 0.00 0.00 0.00 59 1011.6
20260504005133 2 327 17.7 17.7 0.00 0.00 0.00 58 1011.2
20260504004133 2 327 19.3 19.3 0.00 0.00 0.00 56 1011.2
20260504003134 2 333 19.3 19.3 0.00 0.00 0.00 55 1011.3
20260504002134 2 327 17.7 17.7 0.00 0.00 0.00 53 1011.0
20260504001133 2 329 17.7 17.7 0.00 0.00 0.00 52 1010.8
20260504000133 2 306 14.5 14.5 0.00 0.00 0.00 52 1010.8
20260503235133 2 327 14.5 14.5 0.00 0.00 0.00 50 1010.8
20260503234133 2 333 14.5 14.5 0.00 0.00 0.00 49 1010.8
20260503233133 2 330 11.3 11.3 0.00 0.00 0.00 48 1010.5
20260503232133 2 323 16.1 16.1 0.00 0.00 0.00 47 1010.8
20260503231134 2 312 12.9 12.9 0.00 0.00 0.00 47 1010.7
20260503230134 2 326 14.5 14.5 0.00 0.00 0.00 47 1010.6
20260503225134 3 323 19.3 19.3 0.00 0.00 0.00 48 1010.7
20260503224133 3 316 16.1 16.1 0.00 0.00 0.00 49 1010.7
20260503223134 3 306 11.3 11.3 0.00 0.00 0.00 50 1010.7
20260503222134 2 316 14.5 14.5 0.00 0.00 0.00 51 1010.6
20260503221133 2 320 12.9 12.9 0.00 0.00 0.00 53 1010.4
20260503220133 2 327 12.9 12.9 0.00 0.00 0.00 53 1010.5
20260503215134 2 316 14.5 14.5 0.00 0.00 0.00 57 1010.7
20260503214134 2 329 17.7 17.7 0.00 0.00 0.00 57 1010.5
20260503213133 2 315 17.7 17.7 0.00 0.00 0.00 56 1010.4
20260503212133 2 334 14.5 14.5 0.00 0.00 0.00 57 1010.4
20260503211133 1 331 14.5 14.5 0.00 0.00 0.00 58 1010.4
20260503210133 1 320 16.1 16.1 0.00 0.00 0.00 60 1010.5
20260503205133 1 330 9.7 9.7 0.00 0.00 0.00 60 1010.5
20260503204134 1 334 12.9 12.9 0.00 0.00 0.00 62 1010.3
20260503203133 1 313 11.3 11.3 0.00 0.00 0.00 62 1010.4
20260503202133 1 326 12.9 12.9 0.00 0.00 0.00 62 1010.4
20260503201133 1 336 16.1 16.1 0.00 0.00 0.00 62 1010.5
20260503200134 1 312 4.8 4.8 0.00 0.00 0.00 63 1010.6
20260503195134 1 343 12.9 12.9 0.00 0.00 0.00 61 1010.5
20260503194133 1 350 12.9 12.9 0.00 0.00 0.00 60 1010.5
20260503193134 0 329 14.5 14.5 0.00 0.00 0.00 61 1010.5
20260503192134 1 337 14.5 14.5 0.00 0.00 0.00 61 1010.6
20260503191134 0 331 9.7 9.7 0.00 0.00 0.00 62 1010.6
20260503190133 0 316 14.5 14.5 0.00 0.00 0.00 62 1010.4
20260503185133 0 320 16.1 16.1 0.00 0.00 0.00 62 1010.3
20260503184133 0 320 9.7 9.7 0.00 0.00 0.00 61 1010.5
20260503183134 0 327 12.9 12.9 0.00 0.00 0.00 62 1010.5
20260503182134 0 331 14.5 14.5 0.00 0.00 0.00 64 1010.5
20260503181133 0 334 16.1 16.1 0.00 0.00 0.00 61 1010.1
20260503180134 0 331 9.7 9.7 0.00 0.00 0.00 62 1010.4
20260503175133 0 327 9.7 9.7 0.00 0.00 0.00 63 1010.3
20260503174133 0 336 16.1 16.1 0.00 0.00 0.00 62 1010.2
20260503173133 0 330 11.3 11.3 0.00 0.00 0.00 62 1010.2
20260503172133 0 331 11.3 11.3 0.00 0.00 0.00 65 1010.2
20260503171134 0 324 12.9 12.9 0.00 0.00 0.00 67 1010.1
20260503170134 0 317 11.3 11.3 0.00 0.00 0.00 69 1010.2
20260503160133 0 310 9.7 9.7 0.00 0.00 0.00 82 1010.3